Eastover, SC

7:05 AM EDT on September 25, 2017 (GMT -0400)
McEntire Angs

Weather History for KMMT - January, 2013

Change the Weather History Date:

Thursday, January 3, 2013

  Actual Average Record
Temperature  
Mean Temperature 44 °F -  
Max Temperature 48 °F 56 °F 78 °F (2000)
Min Temperature 37 °F 34 °F 11 °F (2001)
Degree Days  
Heating Degree Days 20    
Moisture  
Dew Point 44 °F    
Average Humidity 96    
Maximum Humidity 100    
Minimum Humidity 84    
Precipitation  
Precipitation 0.07 in - - ()
Sea Level Pressure  
Sea Level Pressure 30.21 in    
Wind  
Wind Speed 3 mph (ENE)    
Max Wind Speed 9 mph    
Max Gust Speed -    
Visibility 5 miles    
Events Fog , Rain    
Averages and records for this station are not official NWS values.
T = Trace of Precipitation, MM = Missing Value Source: NWS Daily Summary

Daily Weather History Graph

Daily Weather History Graph

Search for Another Location

Airport or City:

Trip Planner

Search our weather history database for the weather conditions in past years. The results will help you decide how hot, cold, wet, or windy it might be!

Date:

Astronomy

Jan. 03, 2013 Rise Set
Actual Time 7:28 AM EST 5:27 PM EST
Civil Twilight 7:01 AM EST 5:54 PM EST
Nautical Twilight 6:30 AM EST 6:25 PM EST
Astronomical Twilight 5:59 AM EST 6:56 PM EST
Moon 11:41 PM EST (1/3) 10:57 AM EST (1/3)
Length of Visible Light 10h 53m
Length of Day
9h 58m
Waning Gibbous, 65% of the Moon is Illuminated
Jan 3
Waning Gibbous
Jan 4
Last Quarter
Jan 11
New
Jan 18
First Quarter
Jan 26
Full

Hourly Weather History & Observations

Time (EST) Temp. Windchill Dew Point Humidity Pressure Visibility Wind Dir Wind Speed Gust Speed Precip Events Conditions
12:55 AM 48.0 °F - 43.5 °F 84% 30.11 in 10.0 mi East 6.9 mph - N/A   Overcast
1:55 AM 47.8 °F - 44.2 °F 87% 30.12 in 10.0 mi East 3.5 mph - N/A   Overcast
2:00 AM 48.2 °F - 44.6 °F 87% 30.12 in 10.0 mi East 3.5 mph - N/A   Overcast
2:55 AM 47.8 °F - 45.0 °F 90% 30.14 in 10.0 mi East 3.5 mph - N/A   Overcast
2:56 AM 48.2 °F - 44.6 °F 87% 30.14 in 10.0 mi East 3.5 mph - N/A   Overcast
3:37 AM 48.2 °F - 44.6 °F 87% 30.14 in 10.0 mi Calm Calm - N/A   Light Drizzle
3:50 AM 48.2 °F - 44.6 °F 87% 30.13 in 10.0 mi East 4.6 mph - N/A Rain Light Rain
3:55 AM 47.7 °F - 45.5 °F 92% 30.13 in 10.0 mi East 4.6 mph - 0.00 in Rain Light Rain
4:36 AM 48.2 °F - 46.4 °F 93% 30.13 in 10.0 mi Calm Calm - N/A Rain Light Rain
4:43 AM 48.2 °F - 46.4 °F 93% 30.12 in 10.0 mi ENE 3.5 mph - N/A Rain Light Rain
4:55 AM 47.3 °F - 46.4 °F 97% 30.13 in 10.0 mi Calm Calm - 0.01 in Rain Light Rain
5:42 AM 46.4 °F 45.2 °F 46.4 °F 100% 30.14 in 9.0 mi East 3.5 mph - N/A Rain Light Rain
5:55 AM 47.1 °F - 46.9 °F 99% 30.14 in 9.0 mi Calm Calm - 0.01 in Rain Light Rain
5:59 AM 46.4 °F 45.2 °F 46.4 °F 100% 30.14 in 9.0 mi East 3.5 mph - N/A Rain Light Rain
6:41 AM 46.4 °F - 46.4 °F 100% 30.16 in 4.0 mi Calm Calm - N/A Rain Light Rain
6:48 AM 46.4 °F - 46.4 °F 100% 30.16 in 4.0 mi Calm Calm - N/A Rain Light Rain
6:55 AM 47.1 °F - 46.9 °F 99% 30.16 in 4.0 mi Calm Calm - 0.02 in Rain Light Rain
7:55 AM 46.6 °F - 46.4 °F 99% 30.17 in 2.0 mi North 4.6 mph - 0.03 in Rain Light Rain
8:46 AM 46.4 °F 43.5 °F 46.4 °F 100% 30.19 in 2.0 mi East 5.8 mph - N/A Rain Light Rain
8:55 AM 46.0 °F 43.1 °F 45.7 °F 99% 30.18 in 2.0 mi ESE 5.8 mph - 0.00 in Rain Light Rain
9:03 AM 46.4 °F 41.9 °F 46.4 °F 100% 30.17 in 1.8 mi SE 9.2 mph - N/A Rain Light Rain
9:08 AM 46.4 °F 42.9 °F 46.4 °F 100% 30.17 in 4.0 mi ESE 6.9 mph - N/A   Overcast
9:24 AM 46.4 °F 45.2 °F 46.4 °F 100% 30.18 in 2.0 mi Variable 3.5 mph - N/A Rain Light Rain
9:48 AM 46.4 °F 44.3 °F 46.4 °F 100% 30.19 in 2.0 mi ESE 4.6 mph - N/A   Overcast
9:55 AM 46.4 °F 42.9 °F 46.2 °F 99% 30.18 in 1.8 mi ESE 6.9 mph - 0.00 in   Overcast
10:04 AM 46.4 °F 42.4 °F 46.4 °F 100% 30.18 in 2.0 mi ESE 8.1 mph - N/A   Overcast
10:19 AM 46.4 °F 43.5 °F 46.4 °F 100% 30.19 in 2.5 mi ESE 5.8 mph - N/A   Overcast
10:50 AM 46.4 °F 45.2 °F 46.4 °F 100% 30.19 in 2.5 mi ESE 3.5 mph - N/A   Overcast
10:55 AM 46.9 °F - 46.8 °F 99% 30.19 in 3.0 mi Calm Calm - N/A   Overcast
11:18 AM 46.4 °F - 46.4 °F 100% 30.20 in 5.0 mi Calm Calm - N/A   Overcast
11:55 AM 47.1 °F - 46.6 °F 98% 30.19 in 5.0 mi Calm Calm - N/A   Overcast
12:55 PM 48.4 °F - 47.3 °F 96% 30.17 in 5.0 mi NE 3.5 mph - N/A   Overcast
1:44 PM 48.2 °F - 46.4 °F 93% 30.14 in 5.0 mi East 5.8 mph - N/A   Overcast
1:49 PM 48.2 °F - 46.4 °F 93% 30.14 in 6.0 mi ENE 5.8 mph - N/A   Overcast
1:55 PM 48.6 °F - 46.9 °F 94% 30.14 in 6.0 mi East 5.8 mph - N/A   Overcast
2:55 PM 48.6 °F - 46.8 °F 93% 30.13 in 4.0 mi East 6.9 mph - N/A   Overcast
3:08 PM 48.2 °F - 46.4 °F 93% 30.15 in 7.0 mi NE 6.9 mph - N/A   Overcast
3:15 PM 48.2 °F - 46.4 °F 93% 30.16 in 2.0 mi NNE 6.9 mph - N/A   Overcast
3:55 PM 46.8 °F - 46.0 °F 97% 30.16 in 1.5 mi Variable 4.6 mph - N/A   Overcast
4:05 PM 46.4 °F 43.5 °F 46.4 °F 100% 30.17 in 1.5 mi NNE 5.8 mph - N/A   Overcast
4:55 PM 45.9 °F 42.3 °F 45.5 °F 99% 30.19 in 1.2 mi North 6.9 mph - N/A   Overcast
5:43 PM 44.6 °F 40.7 °F 44.6 °F 100% 30.21 in 1.8 mi North 6.9 mph - N/A   Overcast
5:55 PM 45.1 °F 42.8 °F 45.0 °F 99% 30.22 in 2.0 mi North 4.6 mph - N/A   Overcast
6:06 PM 44.6 °F 41.4 °F 44.6 °F 100% 30.22 in 3.0 mi Variable 5.8 mph - N/A   Overcast
6:21 PM 44.6 °F 40.7 °F 44.6 °F 100% 30.23 in 3.0 mi North 6.9 mph - N/A   Overcast
6:38 PM 44.6 °F 41.4 °F 44.6 °F 100% 30.24 in 3.0 mi North 5.8 mph - N/A   Overcast
6:55 PM 45.3 °F 42.3 °F 44.2 °F 96% 30.24 in 4.0 mi Variable 5.8 mph - N/A   Overcast
7:04 PM 44.6 °F 43.1 °F 44.6 °F 100% 30.25 in 5.0 mi NNE 3.5 mph - N/A   Overcast
7:08 PM 44.6 °F 42.2 °F 42.8 °F 93% 30.25 in 5.0 mi NNE 4.6 mph - N/A   Overcast
7:13 PM 44.6 °F 43.1 °F 42.8 °F 93% 30.25 in 5.0 mi NNE 3.5 mph - N/A   Overcast
7:24 PM 44.6 °F 43.1 °F 42.8 °F 93% 30.25 in 5.0 mi NNE 3.5 mph - N/A   Mostly Cloudy
7:35 PM 44.6 °F 43.1 °F 42.8 °F 93% 30.25 in 6.0 mi NNE 3.5 mph - N/A   Mostly Cloudy
7:55 PM 44.2 °F - 43.0 °F 95% 30.26 in 6.0 mi Calm Calm - N/A   Mostly Cloudy
8:13 PM 44.6 °F - 42.8 °F 93% 30.26 in 6.0 mi Calm Calm - N/A   Mostly Cloudy
8:25 PM 42.8 °F - 42.8 °F 100% 30.27 in 6.0 mi Calm Calm - N/A   Mostly Cloudy
8:44 PM 42.8 °F - 42.8 °F 100% 30.28 in 7.0 mi Calm Calm - N/A   Overcast
8:55 PM 43.2 °F - 42.6 °F 98% 30.28 in 6.0 mi Calm Calm - N/A   Overcast
9:19 PM 42.8 °F - 42.8 °F 100% 30.28 in 6.0 mi Calm Calm - N/A   Overcast
9:29 PM 42.8 °F - 42.8 °F 100% 30.29 in 5.0 mi Calm Calm - N/A   Overcast
9:36 PM 42.8 °F - 42.8 °F 100% 30.29 in 5.0 mi Calm Calm - N/A   Overcast
9:41 PM 44.6 °F - 42.8 °F 93% 30.29 in 4.0 mi Calm Calm - N/A   Overcast
9:55 PM 44.1 °F - 43.9 °F 99% 30.29 in 5.0 mi Calm Calm - N/A   Overcast
9:59 PM 44.6 °F - 42.8 °F 93% 30.29 in 5.0 mi Calm Calm - N/A   Overcast
10:55 PM 43.5 °F - 42.3 °F 95% 30.29 in 5.0 mi Calm Calm - N/A   Mostly Cloudy
11:03 PM 42.8 °F - 42.8 °F 100% 30.30 in 6.0 mi Calm Calm - N/A   Scattered Clouds
11:13 PM 42.8 °F - 42.8 °F 100% 30.30 in 2.5 mi Calm Calm - N/A   Scattered Clouds
11:14 PM 42.8 °F - 42.8 °F 100% 30.30 in 1.8 mi Calm Calm - N/A   Scattered Clouds
11:15 PM 42.8 °F - 41.0 °F 93% 30.30 in 1.2 mi Calm Calm - N/A   Scattered Clouds
11:16 PM 42.8 °F - 41.0 °F 93% 30.30 in 1.0 mi Calm Calm - N/A   Mist
11:17 PM 42.8 °F - 41.0 °F 93% 30.30 in 0.8 mi Calm Calm - N/A   Mist
11:18 PM 41.0 °F - 41.0 °F 100% 30.30 in 0.8 mi Calm Calm - N/A   Scattered Clouds
11:20 PM 41.0 °F - 41.0 °F 100% 30.30 in 0.5 mi Calm Calm - N/A Fog Fog
11:23 PM 41.0 °F - 39.2 °F 93% 30.29 in 0.5 mi Calm Calm - N/A Fog Fog
11:25 PM 41.0 °F - 39.2 °F 93% 30.29 in 0.2 mi Calm Calm - N/A Fog Fog
11:55 PM 37.9 °F - 37.8 °F 99% 30.29 in 0.2 mi Calm Calm - N/A Fog Fog